Home > Weather > Port Angeles > Past weeks

Flag for U.S.A. Weather for the Past 2 Weeks in Port Angeles, Washington, U.S.A.

Now
50 °F

Sunny.


Feels Like: 48 °F
Forecast: 43 / 54 °F
Wind: 5 mph from Northeast

Location: William R. Fairchild International Airport

Current Time: Feb 9, 2016 at 3:12:39 PM

Latest Report: Feb 9, 2016 at 1:53 PM


Visibility: 9 mi

Pressure: 30.14 "Hg

Humidity: 80%

Dew point: 44 °F

Location of Port AngelesLocation

Historic Weather in Port Angeles — Graph

°F

Port Angeles Temperature Yesterday

Maximum temperature yesterday: 50 °F (at 12:53 PM)
Minimum temperature yesterday: 37 °F (at 3:53 AM)
Average temperature yesterday: 43 °F

High & Low Weather Summary for the Past Weeks

 TemperatureHumidityPressure
High58 °F (Feb 5, 11:53 AM)100% (Jan 27, 8:53 AM)30.60 "Hg (Jan 27, 8:53 AM)
Low31 °F (Jan 31, 2:53 AM)44% (Feb 5, 11:53 AM)29.52 "Hg (Jan 29, 8:53 AM)
Average43 °F84%30.13 "Hg
* Reported Jan 25 1:02 PM — Feb 9 1:53 PM, Port Angeles, Weather by CustomWeather, © 2016

Note: Actual official high and low records may vary slightly from our data, if they occured in-between our weather recording intervals... More about our weather records

Advertising

Port Angeles Weather History for the Previous 24 Hours

 ConditionsComfort  
Time TempWeatherWind HumidityBarometerVisibility
1:53 PM
Tue, Feb 9
50 °FSunny.5 mph80%30.14 "Hg9 mi
12:53 PM51 °FSunny.6 mph74%30.15 "Hg10 mi
11:53 AM50 °FSunny.7 mph77%30.17 "Hg10 mi
10:53 AM50 °FSunny.5 mph80%30.19 "Hg10 mi
9:53 AM49 °FSunny.No wind84%30.19 "Hg10 mi
8:53 AM40 °FFog.No wind97%30.19 "Hg4 mi
7:53 AM34 °FFog.5 mph97%30.19 "Hg4 mi
6:53 AM37 °FFog.5 mph96%30.19 "Hg6 mi
5:53 AM37 °FFog.No wind96%30.20 "Hg6 mi
4:53 AM37 °FFog.5 mph93%30.22 "Hg5 mi
3:59 AM36 °FFog.No wind97%30.22 "Hg1 mi
2:58 AM36 °FFog.No wind97%30.23 "Hg2 mi
2:00 AM38 °FFog.No wind93%30.25 "Hg1 mi
12:53 AM43 °FClear.8 mph89%30.29 "Hg10 mi
11:53 PM
Mon, Feb 8
38 °FClear.7 mph97%30.32 "Hg8 mi
10:53 PM40 °FClear.No wind97%30.32 "Hg10 mi
9:53 PM42 °FClear.6 mph92%30.34 "Hg9 mi
8:53 PM39 °FFog.5 mph96%30.36 "Hg6 mi
7:53 PM40 °FClear.6 mph97%30.36 "Hg7 mi
6:53 PM42 °FClear.6 mph92%30.37 "Hg7 mi
5:53 PM44 °FClear.6 mph85%30.38 "Hg10 mi
4:53 PM48 °FSunny.7 mph80%30.39 "Hg10 mi
3:53 PM50 °FSunny.9 mph74%30.40 "Hg10 mi
Weather by CustomWeather, © 2016

See weather overviewHow to use our weather pages